AirNav  
 
 957 users online  

17II Dreessen Field Airport
Walkerton, Indiana, USA

GOING TO WALKERTON?


FAA INFORMATION EFFECTIVE 04 JANUARY 2018

Location

FAA Identifier: 17II
Lat/Long: 41-27-00.1590N / 086-30-37.0470W
41-27.002650N / 086-30.617450W
41.4500442 / -86.5102908
(estimated)
Elevation: 706 ft. / 215 m (estimated)
Variation: 02W (1980)
From city: 2 miles SW of WALKERTON, IN
Time zone: UTC -5 (UTC -4 during Daylight Saving Time)
Zip code: 46574

Airport Operations

Airport use: Private use. Permission required prior to landing
Activation date: 12/1986
Control tower: no
ARTCC: CHICAGO CENTER
FSS: TERRE HAUTE FLIGHT SERVICE STATION
Attendance: UNATNDD
Wind indicator: yes
Segmented circle: no

Airport Communications

WX AWOS-3 at OXI (10 nm SW): 135.775 (574-772-2041)
WX AWOS-3 at C65 (11 nm SE): 133.025 (574-935-3854)
WX AWOS-3 at PPO (12 nm NW): 119.825 (219-326-6916)
WX ASOS at SBN (18 nm NE): PHONE 574-251-2652

Nearby radio navigation aids

VOR radial/distance  VOR name  Freq  Var
OXIr039/9.9KNOX VOR/DME115.6000E
GIJr204/21.0GIPPER VORTAC115.4000E
GSHr258/22.1GOSHEN VORTAC113.7000E

 
NDB name  Hdg/Dist  Freq  Var  ID
LA PORTE107/12.135603WIUL .. ..- .-..

Airport Services

Runway Information

Runway 9/27

Dimensions: 2600 x 75 ft. / 792 x 23 m
Surface: turf
RUNWAY 9  RUNWAY 27
Traffic pattern: leftleft
Obstructions: none30 ft. trees

Airport Ownership and Management from official FAA records

Ownership: Privately-owned
Owner: CARL DREESSEN
33150 UNION RD
WALKERTON, IN 46574
Phone 219-586-2458
OTHER CONTACT: STEVE DRESSEN 71281 TIMOTHY TR. WALKERTON IN 46574 - 574-586-2088
Manager: STEVE DREESSEN
71281 TIMOTHY TR.
WALKERTON, IN 46574
Phone 574-586-2088

Airport Operational Statistics

Aircraft based on the field: 1
Single engine airplanes: 1
    

Instrument Procedures

There are no published instrument procedures at 17II.

Some nearby airports with instrument procedures:

KOXI - Starke County Airport (10 nm SW)
C65 - Plymouth Municipal Airport (11 nm SE)
KPPO - La Porte Municipal Airport (12 nm NW)
KSBN - South Bend International Airport (18 nm NE)
KMGC - Michigan City Municipal Airport-Phillips Field (21 nm NW)
 
Loc | Ops | Rwys | IFR | FBO | Links
Com | Nav | Svcs | Stats | Notes


 
Area around 17II (Dreessen Field Airport)
 
Road maps at: MapQuest Bing Google
 
Aerial photo
No photo
 
Sectional chart

 
Airport distance calculator
Flying to Dreessen Field Airport? Find the distance to fly.

From to 17II

Sunrise and sunset
Times for 22-Jan-2018
 Local
(UTC-5)
 Zulu
(UTC)
Morning civil twilight07:3712:37
Sunrise08:0713:07
Sunset17:4822:48
Evening civil twilight18:1823:18

Current date and time
Zulu (UTC)  23-Jan-2018 00:50:56
Local (UTC-5)  22-Jan-2018 19:50:56
 
METAR
KOXI 
10nm SW 
230035Z AUTO 14007KT 10SM SCT040 BKN048 BKN050 08/08 A2950 RMK AO1
KPPO 
12nm NW 
230035Z AUTO 16007KT 10SM SCT055 09/08 A2950 RMK AO2 T00850077
KSBN 
17nm NE 
222354Z 19010KT 10SM BKN014 BKN019 09/08 A2953 RMK AO2 SLP003 60000 T00940078 10111 20094 53000
TAF
KSBN 
17nm NE 
221730Z 2218/2318 17014G23KT P6SM VCSH OVC015 FM230000 17009KT P6SM VCSH SCT020 BKN035 FM230900 22007KT 5SM -SHRA OVC025 FM231200 23010KT 2SM -SHRASN OVC010
NOTAMs
Click for the latest NOTAMs
NOTAMs are issued by the DoD/FAA and will open in a separate window not controlled by AirNav.

 

 
 

Would you like to see your business listed on this page?

 If your business provides an interesting product or service to pilots, flight crews, aircraft, or users of the Dreessen Field Airport, you should consider listing it here.  To start the listing process, click on the button below
 
Add a business
 

Other Pages about Dreessen Field Airport

Update a link
 
Copyright © AirNav, LLC. All rights reserved. Privacy Policy  Contact